﻿Дата;C8 Network;Google
2015-12-22;1;0
2015-09-21;1;0
2015-09-10;1;0
2015-07-08;1;0
2014-10-08;1;0
2014-10-01;2;0
2014-07-24;1;0
2014-06-04;1;0
2014-04-25;1;0
2014-04-24;2;0
2014-02-27;1;0
2013-11-05;1;0
2013-09-26;1;0
2013-07-02;1;0
2013-06-17;1;0
2013-04-05;1;0
2012-11-16;1;0
2012-11-15;5;0
2012-11-14;10;0
2012-11-13;9;0
2012-11-12;10;0
2012-11-11;6;0
2012-11-10;7;0
2012-11-09;5;0
2012-11-08;8;0
2012-11-07;2;0
2012-11-06;6;0
2012-11-05;6;0
2012-11-04;3;0
2012-11-03;7;0
2012-11-02;8;0
2012-11-01;2;0
2012-10-31;3;0
2012-10-30;2;0
2012-10-29;5;0
2012-10-28;5;0
2012-10-26;1;0
2012-10-24;2;0
2012-10-22;6;0
2012-10-21;4;0
2012-10-20;3;0
2012-10-19;1;0
2012-10-18;1;0
2012-10-17;6;0
2012-10-16;2;0
2012-10-15;3;0
2012-10-14;2;0
2012-10-13;6;0
2012-10-12;3;0
2012-10-11;3;0
2012-10-10;2;0
2012-10-09;1;0
2012-10-08;1;0
2012-10-07;2;0
2012-10-05;7;0
2012-10-04;3;0
2012-10-03;3;0
2012-10-02;4;0
2012-10-01;3;0
2012-09-30;3;0
2012-09-29;4;0
2012-09-28;4;0
2012-09-26;1;0
2012-09-25;5;0
2012-09-24;1;0
2012-09-21;1;0
2012-09-20;5;0
2012-09-19;4;0
2012-09-18;2;0
2012-09-17;1;0
2012-09-16;1;0
2012-09-15;1;0
2012-09-14;1;0
2012-09-13;1;0
2012-09-12;3;0
2012-09-11;2;0
2012-09-10;1;0
2012-09-09;3;0
2012-09-08;2;0
2012-09-07;2;0
2012-09-04;2;0
2012-09-03;2;0
2012-09-02;1;0
2012-09-01;2;0
2012-08-31;4;0
2012-08-30;5;0
2012-08-29;13;0
2012-08-28;11;0
2012-08-27;3;0
2012-08-26;7;0
2012-08-25;7;0
2012-08-24;13;0
2012-08-23;6;0
2012-08-22;11;0
2012-08-21;13;0
2012-08-20;4;0
2012-08-19;3;0
2012-08-18;1;0
2012-08-16;2;0
2012-08-15;3;0
2012-08-14;4;0
2012-08-13;2;0
2012-08-12;7;0
2012-08-11;3;0
2012-08-10;4;0
2012-08-08;4;0
2012-08-07;2;0
2012-08-06;3;0
2012-08-04;2;0
2012-08-03;2;0
2012-08-02;2;0
2012-08-01;4;0
2012-07-31;1;0
2012-07-30;11;0
2012-07-28;1;0
2012-07-27;1;0
2012-07-26;1;0
2012-07-25;3;0
2012-07-23;4;0
2012-07-22;1;0
2012-07-21;2;0
2012-07-20;3;0
2012-07-19;3;0
2012-07-18;4;0
2012-07-17;3;0
2012-07-15;4;0
2012-07-14;2;0
2012-07-13;1;0
2012-07-12;3;0
2012-07-11;1;0
2012-07-10;2;0
2012-07-09;2;0
2012-07-07;4;0
2012-07-05;5;0
2012-07-03;4;0
2012-07-02;8;0
2012-07-01;2;0
2012-06-30;1;0
2012-06-29;4;0
2012-06-28;2;0
2012-06-27;6;0
2012-06-26;7;0
2012-06-25;6;0
2012-06-24;3;0
2012-06-23;3;0
2012-06-22;2;0
2012-06-21;2;0
2012-06-20;4;0
2012-06-19;3;0
2012-06-18;3;0
2012-06-17;3;0
2012-06-16;6;0
2012-06-15;2;0
2012-06-14;3;0
2012-06-13;1;0
2012-06-12;1;0
2012-06-11;3;0
2012-06-10;4;0
2012-06-09;5;0
2012-06-08;2;0
2012-06-07;3;0
2012-06-06;3;0
2012-06-05;4;0
2012-06-04;2;0
2012-06-03;2;0
2012-06-02;4;0
2012-06-01;2;0
2012-05-31;4;0
2012-05-30;3;0
2012-05-29;4;0
2012-05-28;6;0
2012-05-27;8;0
2012-05-26;5;0
2012-05-25;6;0
2012-05-24;2;0
2012-05-23;1;0
2012-05-22;3;0
2012-05-21;6;0
2012-05-20;1;0
2012-05-19;5;0
2012-05-18;3;0
2012-05-17;2;0
2012-05-16;2;0
2012-05-15;2;0
2012-05-14;4;0
2012-05-13;4;0
2012-05-12;7;0
2012-05-11;6;0
2012-05-10;4;0
2012-05-09;6;0
2012-05-08;3;0
2012-05-07;4;0
2012-05-06;4;0
2012-05-05;3;0
2012-05-04;6;0
2012-05-03;4;0
2012-05-02;2;0
2012-05-01;1;0
2012-04-30;1;0
2012-04-29;2;0
2012-04-28;3;0
2012-04-27;3;0
2012-04-26;3;0
2012-04-25;7;0
2012-04-24;2;0
2012-04-23;1;0
2012-04-22;5;0
2012-04-21;7;0
2012-04-20;1;0
2012-04-19;6;0
2012-04-18;3;0
2012-04-17;2;0
2012-04-16;7;0
2012-04-15;5;0
2012-04-14;1;0
2012-04-13;4;0
2012-04-12;6;0
2012-04-11;3;0
2012-04-10;2;0
2012-04-09;4;0
2012-04-08;3;0
2012-04-07;4;0
2012-04-06;2;0
2012-04-05;7;0
2012-04-04;5;0
2012-04-03;1;0
2012-04-02;3;0
2012-04-01;5;0
2012-03-31;2;0
2012-03-30;8;0
2012-03-29;4;0
2012-03-28;8;0
2012-03-27;4;0
2012-03-26;10;0
2012-03-25;8;0
2012-03-24;7;0
2012-03-23;9;0
2012-03-22;8;0
2012-03-21;7;0
2012-03-20;1;0
2012-03-19;4;0
2012-03-18;3;0
2012-03-17;3;0
2012-03-16;1;0
2012-03-15;5;0
2012-03-13;5;0
2012-03-12;3;0
2012-03-11;2;0
2012-03-10;3;0
2012-03-09;6;0
2012-03-08;4;0
2012-03-07;2;0
2012-03-06;2;0
2012-03-05;2;0
2012-03-04;10;0
2012-03-03;8;0
2012-03-02;2;0
2012-03-01;1;0
2012-02-28;2;0
2012-02-27;3;0
2012-02-25;4;0
2012-02-24;5;0
2012-02-23;3;0
2012-02-22;4;0
2012-02-21;6;0
2012-02-19;3;0
2012-02-18;5;0
2012-02-17;5;0
2012-02-16;1;0
2012-02-15;2;0
2012-02-14;1;0
2012-02-13;3;0
2012-02-12;7;0
2012-02-11;1;0
2012-02-10;8;0
2012-02-09;4;0
2012-02-08;8;0
2012-02-07;6;0
2012-02-06;7;0
2012-02-05;12;0
2012-02-04;8;0
2012-02-03;14;0
2012-02-02;8;0
2012-02-01;10;0
2012-01-31;21;0
2012-01-30;5;0
2012-01-29;16;0
2012-01-28;18;0
2012-01-27;11;0
2012-01-26;10;0
2012-01-25;9;0
2012-01-24;8;0
2012-01-23;8;0
2012-01-22;11;0
2012-01-21;5;0
2012-01-20;4;0
2012-01-19;6;0
2012-01-18;5;0
2012-01-17;3;0
2012-01-16;8;0
2012-01-15;10;0
2012-01-14;11;0
2012-01-13;7;0
2012-01-12;7;0
2012-01-11;12;0
2012-01-10;11;0
2012-01-09;15;0
2012-01-08;13;0
2012-01-07;9;0
2012-01-06;10;0
2012-01-05;7;0
2012-01-04;11;0
2012-01-03;14;0
2012-01-02;12;0
2012-01-01;3;0
2011-12-31;5;0
2011-12-30;5;0
2011-12-29;5;0
2011-12-28;3;0
2011-12-27;4;0
2011-12-26;8;0
2011-12-25;3;0
2011-12-24;7;0
2011-12-23;5;0
2011-12-22;6;0
2011-12-21;7;0
2011-12-20;9;0
2011-12-19;7;0
2011-12-18;7;0
2011-12-17;11;0
2011-12-16;8;0
2011-12-15;1;0
2011-12-14;4;0
2011-12-13;18;0
2011-12-12;13;0
2011-12-11;10;0
2011-12-10;9;0
2011-12-09;7;0
2011-12-08;11;0
2011-12-07;61;0
2011-12-06;40;0
2011-12-05;346;0
2011-12-04;651;0
2011-12-03;669;0
2011-12-02;659;0
2011-12-01;803;1
2011-11-30;730;0
2011-11-29;774;0
2011-11-28;721;0
2011-11-27;799;0
2011-11-26;635;0
2011-11-25;707;0
2011-11-24;778;0
2011-11-23;662;0
2011-11-22;709;0
2011-11-21;1633;0
2011-11-20;1740;0
2011-11-19;1720;0
2011-11-18;1765;0
2011-11-17;1825;0
2011-11-16;1880;0
2011-11-15;2;0
2011-11-14;8;0
2011-11-13;6;0
2011-11-12;5;0
2011-11-11;5;0
2011-11-10;4;0
2011-11-09;7;0
2011-11-08;6;0
2011-11-07;7;0
2011-11-06;5;0
2011-11-05;4;0
2011-11-04;5;0
2011-11-03;5;0
2011-11-02;5;0
2011-11-01;2;0
2011-10-31;2;0
2011-10-30;1;0
2011-10-29;1;0
2011-09-16;0;1
2011-04-28;0;1
